Modesto, CA

9:29 AM PDT on October 01, 2016 (GMT -0700)
Modesto City-County-Sham

Weather History for KMOD - June, 2013

Change the Weather History Date:

Sunday, June 16, 2013

  Actual Average Record
Temperature  
Mean Temperature 77 °F -  
Max Temperature 93 °F 90 °F 109 °F (1961)
Min Temperature 60 °F 60 °F 46 °F (1944)
Degree Days  
Heating Degree Days 0 0  
Month to date heating degree days 0 0  
Since 1 June heating degree days 0 0  
Since 1 July heating degree days 2148 2168  
Cooling Degree Days 12 10  
Month to date cooling degree days 181 137  
Year to date cooling degree days 427 336  
Since 1 June cooling degree days 181 137  
Growing Degree Days 26 (Base 50)    
Moisture  
Dew Point 43 °F    
Average Humidity 39    
Maximum Humidity 56    
Minimum Humidity 21    
Precipitation  
Precipitation 0.00 in 0.00 in 0.07 in (2005)
Month to date precipitation T 0.09  
Year to date precipitation 3.14 8.72  
Since 1 July precipitation 9.02  
Snow  
Snow 0.00 in - - ()
Month to date snowfall 0.0  
Since 1 June snowfall 0.0  
Since 1 July snowfall 0.0  
Snow Depth -    
Sea Level Pressure  
Sea Level Pressure 29.97 in    
Wind  
Wind Speed 10 mph (NW)    
Max Wind Speed 16 mph    
Max Gust Speed 27 mph    
Visibility 10 miles    
Events      
T = Trace of Precipitation, MM = Missing Value Source: NWS Daily Summary

Daily Weather History Graph

Daily Weather History Graph

Search for Another Location

Airport or City:

Trip Planner

Search our weather history database for the weather conditions in past years. The results will help you decide how hot, cold, wet, or windy it might be!

Date:

Astronomy

Jun. 16, 2013 Rise Set
Actual Time 5:41 AM PDT 8:27 PM PDT
Civil Twilight 5:10 AM PDT 8:58 PM PDT
Nautical Twilight 4:31 AM PDT 9:37 PM PDT
Astronomical Twilight 3:47 AM PDT 10:21 PM PDT
Moon 1:15 PM PDT (6/16) 12:42 AM PDT (6/16)
Length of Visible Light 15h 47m
Length of Day
14h 45m
Waxing Crescent, 51% of the Moon is Illuminated
Jun 16
Waxing Crescent
Jun 23
Full
Jun 29
Last Quarter
Jul 8
New
Jul 15
First Quarter

Hourly Weather History & Observations

Time (PDT) Temp. Dew Point Humidity Pressure Visibility Wind Dir Wind Speed Gust Speed Precip Events Conditions
12:53 AM 66.0 °F 43.0 °F 43% 29.93 in 10.0 mi NNW 9.2 mph - N/A   Clear
1:53 AM 64.9 °F 43.0 °F 45% 29.94 in 10.0 mi NNW 8.1 mph - N/A   Clear
2:53 AM 64.0 °F 44.1 °F 48% 29.93 in 10.0 mi NNW 8.1 mph - N/A   Clear
3:53 AM 63.0 °F 43.0 °F 48% 29.94 in 10.0 mi North 6.9 mph - N/A   Clear
4:53 AM 60.1 °F 45.0 °F 57% 29.94 in 10.0 mi North 4.6 mph - N/A   Clear
5:53 AM 60.1 °F 45.0 °F 57% 29.96 in 10.0 mi North 4.6 mph - N/A   Clear
6:53 AM 62.1 °F 46.9 °F 58% 29.97 in 10.0 mi NNE 5.8 mph - N/A   Clear
7:53 AM 66.9 °F 46.0 °F 47% 29.99 in 10.0 mi North 4.6 mph - N/A   Clear
8:53 AM 71.1 °F 45.0 °F 39% 30.00 in 10.0 mi NNW 6.9 mph - N/A   Clear
9:53 AM 73.9 °F 44.1 °F 34% 30.01 in 10.0 mi NNW 10.4 mph - N/A   Clear
10:53 AM 78.1 °F 45.0 °F 31% 30.01 in 10.0 mi NNW 12.7 mph - N/A   Clear
11:53 AM 82.9 °F 46.0 °F 27% 30.01 in 10.0 mi NW 10.4 mph - N/A   Clear
12:53 PM 87.1 °F 46.9 °F 25% 30.00 in 10.0 mi NNW 12.7 mph 17.3 mph N/A   Clear
1:53 PM 88.0 °F 45.0 °F 22% 29.99 in 10.0 mi West 15.0 mph - N/A   Clear
2:53 PM 90.0 °F 44.1 °F 20% 29.98 in 10.0 mi WNW 16.1 mph 26.5 mph N/A   Clear
3:53 PM 91.9 °F 41.0 °F 17% 29.96 in 10.0 mi West 19.6 mph - N/A   Clear
4:53 PM 91.0 °F 43.0 °F 19% 29.96 in 10.0 mi NW 18.4 mph 24.2 mph N/A   Clear
5:53 PM 90.0 °F 39.0 °F 17% 29.95 in 10.0 mi WNW 16.1 mph 23.0 mph N/A   Clear
6:53 PM 86.0 °F 35.1 °F 16% 29.96 in 10.0 mi WNW 17.3 mph 29.9 mph N/A   Clear
7:53 PM 81.0 °F 37.0 °F 21% 29.97 in 10.0 mi WNW 18.4 mph 25.3 mph N/A   Clear
8:53 PM 77.0 °F 37.9 °F 24% 29.97 in 10.0 mi WNW 16.1 mph - N/A   Clear
9:53 PM 73.9 °F 36.0 °F 25% 29.99 in 10.0 mi NW 10.4 mph - N/A   Clear
10:53 PM 72.0 °F 37.0 °F 28% 30.01 in 10.0 mi NW 9.2 mph - N/A   Clear
11:53 PM 69.1 °F 43.0 °F 39% 30.01 in 10.0 mi North 5.8 mph - N/A   Clear